AEZ2135 LICB-LIMZ

Flight info

Callsign AEZ2135
Flight time N/A
Altitude 38000
Route ENEPA DCT DORAS DCT TINTO DCT DOBIM R16 GUNPI DCT LAGEN
Aircraft A319/M-SDE3FGHIRWY/LB1

Departure

Time 2026-05-08 09:47
Airport Comiso Airport (LICB)

Arrival

Time N/A
Airport Cuneo International Airport (LIMZ)
Time Latitude Longitude Altitude Speed Heading
2026-05-08 09:26 36.99809 14.60794 739 ft 0 kts 352°
2026-05-08 09:41 36.99810 14.60794 739 ft 0 kts
2026-05-08 09:41 36.99810 14.60795 740 ft 0 kts 15°
2026-05-08 09:41 36.99811 14.60797 740 ft 0 kts 43°
2026-05-08 09:42 36.99811 14.60802 740 ft 2 kts 94°
2026-05-08 09:42 36.99809 14.60838 740 ft 5 kts 94°
2026-05-08 09:42 36.99816 14.60906 741 ft 10 kts 63°
2026-05-08 09:42 36.99869 14.60993 742 ft 14 kts 51°
2026-05-08 09:43 36.99937 14.61094 747 ft 15 kts 50°
2026-05-08 09:43 37.00012 14.61206 751 ft 17 kts 51°
2026-05-08 09:43 37.00052 14.61267 758 ft 0 kts 51°
2026-05-08 09:43 37.00058 14.61276 758 ft 2 kts 50°
2026-05-08 09:44 37.00077 14.61305 759 ft 5 kts 50°
2026-05-08 09:44 37.00109 14.61353 761 ft 8 kts 51°
2026-05-08 09:44 37.00142 14.61404 766 ft 6 kts 50°
2026-05-08 09:44 37.00173 14.61449 769 ft 6 kts 50°
2026-05-08 09:45 37.00208 14.61501 772 ft 8 kts 50°
2026-05-08 09:45 37.00252 14.61567 775 ft 10 kts 50°
2026-05-08 09:45 37.00304 14.61645 779 ft 12 kts 50°
2026-05-08 09:45 37.00357 14.61735 783 ft 13 kts 73°
2026-05-08 09:46 37.00307 14.61832 787 ft 15 kts 156°
2026-05-08 09:46 37.00224 14.61838 787 ft 8 kts 213°
2026-05-08 09:46 37.00211 14.61821 786 ft 2 kts 229°
2026-05-08 09:46 37.00120 14.61689 774 ft 55 kts 231°
2026-05-08 09:47 36.99702 14.61062 743 ft 128 kts 229°
2026-05-08 09:47 36.99022 14.60070 963 ft 159 kts 232°
2026-05-08 09:47 36.98444 14.58915 1546 ft 161 kts 259°
2026-05-08 09:47 36.98563 14.57566 2175 ft 165 kts 300°
2026-05-08 09:48 36.99398 14.56629 2894 ft 165 kts 328°
2026-05-08 09:48 37.00413 14.55931 3437 ft 174 kts 327°
2026-05-08 09:48 37.01516 14.55185 3935 ft 187 kts 328°
2026-05-08 09:48 37.02705 14.54447 4527 ft 196 kts 329°
2026-05-08 09:49 37.03969 14.53731 5104 ft 207 kts 329°
2026-05-08 09:49 37.05331 14.52911 5512 ft 228 kts 328°
2026-05-08 09:49 37.06813 14.51984 6039 ft 245 kts 328°
2026-05-08 09:49 37.08385 14.51032 6548 ft 262 kts 328°
2026-05-08 09:50 37.10039 14.49959 7208 ft 272 kts 326°
2026-05-08 09:50 37.11711 14.48849 8117 ft 272 kts 326°
2026-05-08 09:50 37.13359 14.47757 9017 ft 273 kts 324°
2026-05-08 09:50 37.15022 14.46650 9891 ft 273 kts 324°
2026-05-08 09:51 37.16692 14.45527 10653 ft 279 kts 323°
2026-05-08 09:51 37.18442 14.44335 11092 ft 294 kts 324°
2026-05-08 09:51 37.20292 14.43080 11466 ft 311 kts 324°
2026-05-08 09:51 37.22288 14.41786 11833 ft 329 kts 324°
2026-05-08 09:52 37.24275 14.40318 12176 ft 342 kts 322°
2026-05-08 09:52 37.26324 14.38728 12765 ft 349 kts 322°
2026-05-08 09:52 37.28404 14.37120 13441 ft 352 kts 322°
2026-05-08 09:52 37.30501 14.35517 14096 ft 355 kts 322°
2026-05-08 09:53 37.32614 14.33912 14746 ft 358 kts 322°
2026-05-08 09:53 37.34748 14.32297 15426 ft 361 kts 322°
2026-05-08 09:53 37.36903 14.30670 16117 ft 363 kts 322°
2026-05-08 09:53 37.39059 14.29042 16790 ft 365 kts 322°
2026-05-08 09:54 37.41254 14.27387 17455 ft 367 kts 321°
2026-05-08 09:54 37.43436 14.25736 18101 ft 368 kts 321°
2026-05-08 09:54 37.45632 14.24075 18732 ft 370 kts 321°
2026-05-08 09:54 37.47837 14.22405 19301 ft 374 kts 321°
2026-05-08 09:55 37.50057 14.20720 19872 ft 375 kts 321°
2026-05-08 09:55 37.52292 14.19025 20413 ft 379 kts 321°
2026-05-08 09:55 37.54565 14.17298 20942 ft 382 kts 321°
2026-05-08 09:55 37.56825 14.15583 21472 ft 383 kts 321°
2026-05-08 09:56 37.59140 14.13824 21971 ft 386 kts 321°
2026-05-08 09:56 37.61447 14.12073 22460 ft 389 kts 321°
2026-05-08 09:56 37.63772 14.10302 22978 ft 391 kts 321°
2026-05-08 09:56 37.66085 14.08542 23504 ft 391 kts 321°
2026-05-08 09:57 37.70760 14.04975 24386 ft 397 kts 321°
2026-05-08 09:57 37.73129 14.03168 24842 ft 400 kts 321°
2026-05-08 09:57 37.75568 14.01390 25305 ft 404 kts 323°
2026-05-08 09:58 37.78090 13.99758 25690 ft 410 kts 327°
2026-05-08 09:58 37.80689 13.98288 26127 ft 415 kts 329°
2026-05-08 09:58 37.83387 13.96909 26539 ft 418 kts 330°
2026-05-08 09:58 37.86068 13.95558 26938 ft 420 kts 330°
2026-05-08 09:59 37.88797 13.94190 27343 ft 422 kts 330°
2026-05-08 09:59 37.91514 13.92828 27718 ft 424 kts 330°
2026-05-08 09:59 37.94273 13.91443 28097 ft 425 kts 330°
2026-05-08 09:59 37.97017 13.90064 28427 ft 428 kts 330°
2026-05-08 10:00 37.99783 13.88672 28772 ft 429 kts 330°
2026-05-08 10:00 38.02555 13.87275 29298 ft 426 kts 330°
2026-05-08 10:00 38.05270 13.85908 29815 ft 423 kts 330°
2026-05-08 10:00 38.08017 13.84523 30296 ft 421 kts 330°
2026-05-08 10:01 38.10698 13.83169 30827 ft 417 kts 330°
2026-05-08 10:01 38.13403 13.81804 31315 ft 414 kts 330°
2026-05-08 10:01 38.16068 13.80453 31735 ft 413 kts 330°
2026-05-08 10:01 38.18699 13.79121 32156 ft 410 kts 330°
2026-05-08 10:02 38.21340 13.77782 32583 ft 408 kts 330°
2026-05-08 10:02 38.23979 13.76443 33015 ft 406 kts 330°
2026-05-08 10:02 38.26568 13.75127 33426 ft 403 kts 330°
2026-05-08 10:02 38.29184 13.73797 33829 ft 401 kts 330°
2026-05-08 10:03 38.31761 13.72485 34175 ft 400 kts 330°
2026-05-08 10:03 38.34333 13.71175 34438 ft 400 kts 330°
2026-05-08 10:03 38.36928 13.69852 34643 ft 400 kts 330°
2026-05-08 10:03 38.39508 13.68535 34828 ft 402 kts 330°
2026-05-08 10:04 38.42105 13.67211 35011 ft 403 kts 330°
2026-05-08 10:04 38.44710 13.65879 35158 ft 405 kts 330°
2026-05-08 10:04 38.47336 13.64537 35313 ft 407 kts 330°
2026-05-08 10:04 38.49971 13.63188 35488 ft 408 kts 330°
2026-05-08 10:05 38.52589 13.61850 35654 ft 409 kts 330°
2026-05-08 10:05 38.55249 13.60485 35804 ft 410 kts 330°
2026-05-08 10:05 38.57877 13.59139 35941 ft 411 kts 330°
2026-05-08 10:05 38.60535 13.57775 35946 ft 412 kts 330°
2026-05-08 10:06 38.65827 13.55059 35951 ft 412 kts 330°
2026-05-08 10:06 38.71154 13.52319 35947 ft 412 kts 330°
2026-05-08 10:07 38.76467 13.49583 35950 ft 412 kts 330°
2026-05-08 10:07 38.81770 13.46847 35943 ft 411 kts 330°
2026-05-08 10:08 38.87079 13.44102 35940 ft 412 kts 330°
2026-05-08 10:08 38.92367 13.41365 35947 ft 410 kts 330°
2026-05-08 10:09 38.97638 13.38634 35941 ft 409 kts 330°
2026-05-08 10:09 39.02915 13.35894 35947 ft 411 kts 330°
2026-05-08 10:10 39.08203 13.33142 35955 ft 410 kts 330°
2026-05-08 10:10 39.13483 13.30388 35954 ft 411 kts 330°
2026-05-08 10:11 39.18778 13.27624 35949 ft 410 kts 330°
2026-05-08 10:11 39.24075 13.24856 35950 ft 410 kts 330°
2026-05-08 10:12 39.29362 13.22088 35948 ft 411 kts 330°
2026-05-08 10:12 39.34685 13.19297 35951 ft 414 kts 330°
2026-05-08 10:13 39.40012 13.16501 35949 ft 413 kts 330°
2026-05-08 10:13 39.45311 13.13713 35944 ft 412 kts 330°
2026-05-08 10:14 39.50620 13.10913 35947 ft 413 kts 331°
2026-05-08 10:14 39.55036 13.08485 35946 ft 412 kts 328°
2026-05-08 10:15 39.59492 13.05466 35945 ft 408 kts 324°
2026-05-08 10:15 39.64232 13.01470 35940 ft 405 kts 318°
2026-05-08 10:16 39.68651 12.97044 35935 ft 404 kts 316°
2026-05-08 10:16 39.73063 12.92518 35937 ft 404 kts 317°
2026-05-08 10:17 39.77475 12.87988 35941 ft 404 kts 316°
2026-05-08 10:17 39.81875 12.83456 35941 ft 404 kts 317°
2026-05-08 10:18 39.84252 12.81005 35942 ft 404 kts 317°
2026-05-08 10:18 39.88656 12.76462 35943 ft 404 kts 317°
2026-05-08 10:19 39.93069 12.71900 35941 ft 405 kts 316°
2026-05-08 10:20 39.99646 12.65084 35952 ft 405 kts 317°
2026-05-08 10:20 40.04045 12.60520 35942 ft 404 kts 317°
2026-05-08 10:21 40.08425 12.55963 35950 ft 404 kts 317°
2026-05-08 10:21 40.12827 12.51374 35950 ft 405 kts 316°
2026-05-08 10:22 40.17229 12.46782 35944 ft 404 kts 316°
2026-05-08 10:22 40.21592 12.42222 35946 ft 402 kts 316°
2026-05-08 10:23 40.25943 12.37662 35939 ft 402 kts 316°
2026-05-08 10:23 40.30313 12.33077 35938 ft 402 kts 316°
2026-05-08 10:24 40.34655 12.28517 35939 ft 403 kts 316°
2026-05-08 10:24 40.39032 12.23906 35936 ft 403 kts 316°
2026-05-08 10:25 40.43385 12.19319 35938 ft 404 kts 316°
2026-05-08 10:25 40.47744 12.14714 35940 ft 402 kts 316°
2026-05-08 10:26 40.52087 12.10119 35938 ft 403 kts 315°
2026-05-08 10:26 40.56467 12.05474 35935 ft 404 kts 315°
2026-05-08 10:27 40.60833 12.00836 35937 ft 403 kts 316°
2026-05-08 10:27 40.65192 11.96198 35936 ft 404 kts 316°
2026-05-08 10:28 40.69540 11.91569 35939 ft 404 kts 316°
2026-05-08 10:28 40.73914 11.86901 35939 ft 405 kts 316°
2026-05-08 10:29 40.78291 11.82223 35940 ft 405 kts 316°
2026-05-08 10:29 40.82658 11.77544 35940 ft 405 kts 316°
2026-05-08 10:30 40.87017 11.72865 35939 ft 406 kts 316°
2026-05-08 10:30 40.91383 11.68179 35941 ft 407 kts 316°
2026-05-08 10:31 40.95786 11.63437 35942 ft 407 kts 316°
2026-05-08 10:31 41.00150 11.58731 35941 ft 406 kts 316°
2026-05-08 10:32 41.04527 11.54005 35948 ft 406 kts 316°
2026-05-08 10:32 41.08879 11.49294 35949 ft 407 kts 316°
2026-05-08 10:33 41.13274 11.44530 35952 ft 406 kts 316°
2026-05-08 10:33 41.17646 11.39781 35947 ft 407 kts 316°
2026-05-08 10:34 41.22003 11.35041 35953 ft 406 kts 316°
2026-05-08 10:34 41.26350 11.30299 35949 ft 406 kts 315°
2026-05-08 10:35 41.30711 11.25534 35959 ft 407 kts 315°
2026-05-08 10:35 41.35075 11.20762 35951 ft 407 kts 315°
2026-05-08 10:36 41.39459 11.15957 35945 ft 407 kts 315°
2026-05-08 10:36 41.43802 11.11185 35952 ft 407 kts 315°
2026-05-08 10:37 41.48266 11.06494 35956 ft 410 kts 319°
2026-05-08 10:37 41.53003 11.02258 35954 ft 412 kts 321°
2026-05-08 10:38 41.57782 10.98098 35956 ft 413 kts 321°
2026-05-08 10:38 41.62604 10.93897 35942 ft 412 kts 321°
2026-05-08 10:39 41.67386 10.89721 35952 ft 414 kts 321°
2026-05-08 10:39 41.72212 10.85501 35958 ft 413 kts 321°
2026-05-08 10:40 41.77022 10.81284 35963 ft 414 kts 321°
2026-05-08 10:40 41.81833 10.77056 35954 ft 414 kts 321°
2026-05-08 10:41 41.86653 10.72815 35953 ft 414 kts 321°
2026-05-08 10:41 41.91452 10.68585 35962 ft 415 kts 321°
2026-05-08 10:42 41.96279 10.64322 35955 ft 416 kts 321°
2026-05-08 10:42 42.01085 10.60070 35953 ft 415 kts 321°
2026-05-08 10:43 42.05926 10.55776 35953 ft 415 kts 321°
2026-05-08 10:43 42.10770 10.51476 35941 ft 417 kts 321°
2026-05-08 10:44 42.15597 10.47182 35935 ft 418 kts 321°
2026-05-08 10:44 42.20460 10.42848 35943 ft 419 kts 321°
2026-05-08 10:45 42.25323 10.38508 35951 ft 418 kts 321°
2026-05-08 10:45 42.30148 10.34190 35957 ft 418 kts 320°
2026-05-08 10:46 42.35008 10.29830 35950 ft 419 kts 320°
2026-05-08 10:46 42.39856 10.25479 35954 ft 419 kts 320°
2026-05-08 10:47 42.44689 10.21128 35951 ft 418 kts 320°
2026-05-08 10:47 42.49537 10.16758 35943 ft 418 kts 320°
2026-05-08 10:48 42.54387 10.12377 35945 ft 420 kts 320°
2026-05-08 10:48 42.59248 10.07977 35956 ft 420 kts 320°
2026-05-08 10:49 42.64088 10.03589 35956 ft 421 kts 320°
2026-05-08 10:49 42.68968 9.99158 35957 ft 422 kts 320°
2026-05-08 10:50 42.73819 9.94740 35945 ft 421 kts 320°
2026-05-08 10:50 42.78715 9.90275 35962 ft 422 kts 320°
2026-05-08 10:51 42.83570 9.85840 35958 ft 422 kts 320°
2026-05-08 10:51 42.88389 9.81371 35953 ft 419 kts 318°
2026-05-08 10:52 42.92784 9.76132 35956 ft 413 kts 309°
2026-05-08 10:52 42.96399 9.70111 35958 ft 408 kts 301°
2026-05-08 10:53 42.99274 9.63454 35957 ft 405 kts 293°
2026-05-08 10:53 43.01689 9.56485 35962 ft 405 kts 292°
2026-05-08 10:54 43.04062 9.49548 35973 ft 405 kts 292°
2026-05-08 10:54 43.06429 9.42585 35970 ft 405 kts 292°
2026-05-08 10:55 43.08787 9.35655 35972 ft 405 kts 294°
2026-05-08 10:55 43.12037 9.29316 35972 ft 413 kts 308°
2026-05-08 10:56 43.16477 9.24239 35972 ft 421 kts 319°
2026-05-08 10:56 43.21354 9.19633 35726 ft 422 kts 320°
2026-05-08 10:56 43.23760 9.17373 35506 ft 419 kts 319°
2026-05-08 10:57 43.26159 9.15115 35282 ft 418 kts 319°
2026-05-08 10:57 43.28560 9.12853 35054 ft 415 kts 319°
2026-05-08 10:57 43.33311 9.08362 34593 ft 415 kts 319°
2026-05-08 10:58 43.35674 9.06125 34180 ft 415 kts 319°
2026-05-08 10:58 43.38039 9.03884 33545 ft 416 kts 319°
2026-05-08 10:58 43.40438 9.01604 32720 ft 421 kts 320°
2026-05-08 10:58 43.42892 8.99265 31787 ft 428 kts 320°
2026-05-08 10:59 43.45337 8.96932 30751 ft 437 kts 320°
2026-05-08 10:59 43.47870 8.94515 29748 ft 443 kts 321°
2026-05-08 10:59 43.50437 8.92072 28988 ft 441 kts 321°
2026-05-08 10:59 43.52991 8.89641 28245 ft 441 kts 321°